Time,TemperatureF,DewpointF,PressureIn,WindDirection,WindDirectionDegrees,WindSpeedMPH,WindSpeedGustMPH,Humidity,HourlyPrecipIn,Conditions,Clouds,dailyrainin,SoftwareType,DateUTC
2013-11-18 00:12:00,-999.0,-99.9,29.81,South,178,8.0,11.0,-999,-99.99,,,-99.99,,2013-11-18 05:12:00,
2013-11-18 00:23:00,-999.0,-99.9,29.80,South,186,6.0,10.0,-999,-99.99,,,-99.99,,2013-11-18 05:23:00,
2013-11-18 00:33:00,-999.0,-99.9,29.80,South,181,6.0,10.0,-999,-99.99,,,-99.99,,2013-11-18 05:33:00,
2013-11-18 00:53:00,-999.0,-99.9,29.77,South,179,7.0,9.0,-999,-99.99,,,-99.99,,2013-11-18 05:53:00,
2013-11-18 01:32:00,-999.0,-99.9,29.74,SSE,166,7.0,9.0,-999,-99.99,,,-99.99,,2013-11-18 06:32:00,
2013-11-18 01:52:00,-999.0,-99.9,29.72,South,171,7.0,10.0,-999,-99.99,,,-99.99,,2013-11-18 06:52:00,
2013-11-18 02:22:00,61.0,-99.9,29.69,North,-999,-999.0,-999.0,-999,-99.99,,,-99.99,,2013-11-18 07:22:00,
2013-11-18 02:42:00,-999.0,-99.9,29.69,SSE,168,5.0,9.0,-999,-99.99,,,-99.99,,2013-11-18 07:42:00,
2013-11-18 03:11:00,-999.0,-99.9,29.65,SSE,164,9.0,11.0,-999,-99.99,,,-99.99,,2013-11-18 08:11:00,
2013-11-18 03:22:00,-999.0,-99.9,29.64,SSE,167,7.0,12.0,-999,-99.99,,,-99.99,,2013-11-18 08:22:00,
2013-11-18 03:52:00,-999.0,-99.9,29.62,South,182,10.0,16.0,-999,-99.99,,,-99.99,,2013-11-18 08:52:00,
2013-11-18 04:02:00,-999.0,-99.9,29.62,South,191,11.0,18.0,-999,-99.99,,,-99.99,,2013-11-18 09:02:00,
2013-11-18 04:22:00,-999.0,-99.9,29.61,SSW,205,9.0,15.0,-999,-99.99,,,-99.99,,2013-11-18 09:22:00,
2013-11-18 04:33:00,-999.0,-99.9,29.61,SSW,204,8.0,16.0,-999,-99.99,,,-99.99,,2013-11-18 09:33:00,
2013-11-18 04:53:00,-999.0,-99.9,29.63,SW,230,6.0,16.0,-999,-99.99,,,-99.99,,2013-11-18 09:53:00,
2013-11-18 05:03:00,-999.0,-99.9,29.64,WSW,255,21.0,31.0,-999,-99.99,,,-99.99,,2013-11-18 10:03:00,
2013-11-18 05:13:00,-999.0,-99.9,29.65,West,261,8.0,20.0,-999,-99.99,,,-99.99,,2013-11-18 10:13:00,
2013-11-18 05:23:00,-999.0,-99.9,29.65,WSW,258,9.0,17.0,-999,-99.99,,,-99.99,,2013-11-18 10:23:00,
2013-11-18 05:43:00,-999.0,-99.9,29.65,WSW,243,7.0,13.0,-999,-99.99,,,-99.99,,2013-11-18 10:43:00,
2013-11-18 05:53:00,-999.0,-99.9,29.66,SW,236,4.0,8.0,-999,-99.99,,,-99.99,,2013-11-18 10:53:00,
2013-11-18 06:12:00,-999.0,-99.9,29.66,SW,220,4.0,9.0,-999,-99.99,,,-99.99,,2013-11-18 11:12:00,
2013-11-18 06:53:00,-999.0,-99.9,29.67,WSW,239,5.0,9.0,-999,-99.99,,,-99.99,,2013-11-18 11:53:00,
2013-11-18 07:02:00,-999.0,-99.9,29.66,SW,217,5.0,11.0,-999,-99.99,,,-99.99,,2013-11-18 12:02:00,
2013-11-18 07:22:00,-999.0,-99.9,29.67,WSW,238,5.0,11.0,-999,-99.99,,,-99.99,,2013-11-18 12:22:00,
2013-11-18 07:32:00,-999.0,-99.9,29.68,WSW,238,5.0,10.0,-999,-99.99,,,-99.99,,2013-11-18 12:32:00,
2013-11-18 07:42:00,-999.0,-99.9,29.67,WSW,248,4.0,8.0,-999,-99.99,,,-99.99,,2013-11-18 12:42:00,
2013-11-18 07:52:00,-999.0,-99.9,29.68,WSW,242,5.0,12.0,-999,-99.99,,,-99.99,,2013-11-18 12:52:00,
2013-11-18 08:11:00,-999.0,-99.9,29.68,SW,223,2.0,9.0,-999,-99.99,,,-99.99,,2013-11-18 13:11:00,
2013-11-18 08:22:00,-999.0,-99.9,29.69,WSW,240,6.0,10.0,-999,-99.99,,,-99.99,,2013-11-18 13:22:00,
2013-11-18 08:52:00,-999.0,-99.9,29.70,SW,227,4.0,10.0,-999,-99.99,,,-99.99,,2013-11-18 13:52:00,
2013-11-18 09:22:00,-999.0,-99.9,29.69,WSW,246,6.0,12.0,-999,-99.99,,,-99.99,,2013-11-18 14:22:00,
2013-11-18 09:32:00,-999.0,-99.9,29.70,WSW,253,8.0,16.0,-999,-99.99,,,-99.99,,2013-11-18 14:32:00,
2013-11-18 09:42:00,-999.0,-99.9,29.69,West,260,8.0,14.0,-999,-99.99,,,-99.99,,2013-11-18 14:42:00,
2013-11-18 10:11:00,-999.0,-99.9,29.69,West,261,10.0,17.0,-999,-99.99,,,-99.99,,2013-11-18 15:11:00,
2013-11-18 10:22:00,-999.0,-99.9,29.69,West,274,12.0,22.0,-999,-99.99,,,-99.99,,2013-11-18 15:22:00,
2013-11-18 11:04:00,-999.0,-99.9,29.68,West,264,13.0,24.0,-999,-99.99,,,-99.99,,2013-11-18 16:04:00,
2013-11-18 12:02:00,-999.0,-99.9,29.65,West,268,13.0,23.0,-999,-99.99,,,-99.99,,2013-11-18 17:02:00,
2013-11-18 12:22:00,-999.0,-99.9,29.65,WSW,256,13.0,20.0,-999,-99.99,,,-99.99,,2013-11-18 17:22:00,
2013-11-18 12:43:00,-999.0,-99.9,29.64,WSW,255,12.0,22.0,-999,-99.99,,,-99.99,,2013-11-18 17:43:00,
2013-11-18 12:52:00,-999.0,-99.9,29.64,WNW,286,15.0,19.0,-999,-99.99,,,-99.99,,2013-11-18 17:52:00,
2013-11-18 13:12:00,-999.0,-99.9,29.64,WSW,253,11.0,18.0,-999,-99.99,,,-99.99,,2013-11-18 18:12:00,
2013-11-18 13:52:00,-999.0,-99.9,29.64,West,275,10.0,17.0,-999,-99.99,,,-99.99,,2013-11-18 18:52:00,
2013-11-18 14:01:00,-999.0,-99.9,29.64,WNW,285,14.0,19.0,-999,-99.99,,,-99.99,,2013-11-18 19:01:00,
2013-11-18 14:11:00,-999.0,-99.9,29.64,WSW,254,11.0,21.0,-999,-99.99,,,-99.99,,2013-11-18 19:11:00,
2013-11-18 14:22:00,-999.0,-99.9,29.63,West,267,11.0,15.0,-999,-99.99,,,-99.99,,2013-11-18 19:22:00,
2013-11-18 15:22:00,-999.0,-99.9,29.64,West,266,12.0,19.0,-999,-99.99,,,-99.99,,2013-11-18 20:22:00,
2013-11-18 15:32:00,-999.0,-99.9,29.64,West,266,13.0,19.0,-999,-99.99,,,-99.99,,2013-11-18 20:32:00,
2013-11-18 15:42:00,-999.0,-99.9,29.64,West,269,10.0,18.0,-999,-99.99,,,-99.99,,2013-11-18 20:42:00,
2013-11-18 15:52:00,-999.0,-99.9,29.64,WSW,255,7.0,18.0,-999,-99.99,,,-99.99,,2013-11-18 20:52:00,
2013-11-18 16:02:00,-999.0,-99.9,29.64,WSW,255,11.0,17.0,-999,-99.99,,,-99.99,,2013-11-18 21:02:00,
2013-11-18 16:33:00,-999.0,-99.9,29.66,West,264,14.0,23.0,-999,-99.99,,,-99.99,,2013-11-18 21:33:00,
2013-11-18 17:13:00,-999.0,-99.9,29.68,West,281,9.0,15.0,-999,-99.99,,,-99.99,,2013-11-18 22:13:00,
2013-11-18 17:23:00,-999.0,-99.9,29.69,West,259,8.0,12.0,-999,-99.99,,,-99.99,,2013-11-18 22:23:00,
2013-11-18 19:02:00,-999.0,-99.9,29.72,West,266,7.0,11.0,-999,-99.99,,,-99.99,,2013-11-19 00:02:00,
2013-11-18 19:11:00,-999.0,-99.9,29.73,West,267,7.0,11.0,-999,-99.99,,,-99.99,,2013-11-19 00:11:00,
2013-11-18 19:32:00,-999.0,-99.9,29.73,WSW,258,8.0,12.0,-999,-99.99,,,-99.99,,2013-11-19 00:32:00,
2013-11-18 20:11:00,-999.0,-99.9,29.74,West,264,7.0,8.0,-999,-99.99,,,-99.99,,2013-11-19 01:11:00,
2013-11-18 20:22:00,-999.0,-99.9,29.74,West,272,8.0,16.0,-999,-99.99,,,-99.99,,2013-11-19 01:22:00,
2013-11-18 20:32:00,-999.0,-99.9,29.74,West,274,10.0,19.0,-999,-99.99,,,-99.99,,2013-11-19 01:32:00,
2013-11-18 21:22:00,-999.0,-99.9,29.76,WNW,303,16.0,20.0,-999,-99.99,,,-99.99,,2013-11-19 02:22:00,
2013-11-18 21:42:00,-999.0,-99.9,29.76,NW,304,19.0,28.0,-999,-99.99,,,-99.99,,2013-11-19 02:42:00,
2013-11-18 22:02:00,-999.0,-99.9,29.76,WNW,294,20.0,26.0,-999,-99.99,,,-99.99,,2013-11-19 03:02:00,
2013-11-18 22:11:00,-999.0,-99.9,29.77,WNW,297,16.0,25.0,-999,-99.99,,,-99.99,,2013-11-19 03:11:00,
2013-11-18 22:22:00,-999.0,-99.9,29.78,WNW,286,12.0,20.0,-999,-99.99,,,-99.99,,2013-11-19 03:22:00,
2013-11-18 23:24:00,-999.0,-99.9,29.79,WNW,298,14.0,18.0,-999,-99.99,,,-99.99,,2013-11-19 04:24:00,
2013-11-18 23:33:00,-999.0,-99.9,29.79,WNW,299,15.0,20.0,-999,-99.99,,,-99.99,,2013-11-19 04:33:00,
2013-11-18 23:42:00,-999.0,-99.9,29.80,WNW,296,15.0,24.0,-999,-99.99,,,-99.99,,2013-11-19 04:42:00,